Location: Wiler
(46.4041°N, 7.7840°E)
Time: 09:22:28
(UTC+00:00)

ERBS - Pass Details

Date: 09 April 2020
Orbit: 410 x 426 km, 57.0° (Epoch: 24 May)

Event Time Altitude Azimuth Distance (km) Brightness Sun altitude
Rises 20:09:44 0° 309° (NW) 2,393 7.7 -19.7°
Reaches altitude 10° 20:11:51 10° 310° (NW) 1,525 6.3 -20.0°
Enters shadow 20:15:11 82° 3° (N) 437 2.2 -20.5°
